EW0822 Weather Reports


time (UTC)temp
C
wind
direction
speed
KPH
gust
KPH
rain 1hr
cm
rain 24hr
cm
rain mn
cm
humidity
%
barometer
mb
20260509204522 15 5 0.0 0.0 0.00 0.00 0.00 67 1015.0
20260509203033 15 5 0.0 0.0 0.00 0.00 0.00 62 1014.9
20260509201520 15 5 0.0 0.0 0.00 0.00 0.00 59 1014.9
20260509200021 16 5 0.0 0.0 0.00 0.00 0.00 57 1014.9
20260509194520 16 5 0.0 0.0 0.00 0.00 0.00 55 1014.7
20260509193019 17 5 0.0 0.0 0.00 0.00 0.00 53 1014.9
20260509191521 18 5 0.0 0.0 0.00 0.00 0.00 51 1014.7
20260509190019 18 5 0.0 0.0 0.00 0.00 0.00 49 1014.6
20260509184517 20 22 0.0 0.0 0.00 0.00 0.00 47 1014.4
20260509183017 21 22 0.0 0.0 0.00 0.00 0.00 42 1014.3
20260509181516 21 22 0.0 0.0 0.00 0.00 0.00 41 1014.2
20260509180015 21 22 0.0 0.0 0.00 0.00 0.00 39 1014.1
20260509174516 21 22 0.0 0.0 0.00 0.00 0.00 39 1014.0
20260509173018 21 22 0.0 0.0 0.00 0.00 0.00 40 1014.0
20260509171513 22 63 0.0 0.0 0.00 0.00 0.00 40 1014.0
20260509170014 21 57 0.0 0.0 0.00 0.00 0.00 39 1014.1
20260509164512 21 57 0.0 0.0 0.00 0.00 0.00 39 1014.2
20260509163009 22 47 0.0 4.8 0.00 0.00 0.00 37 1014.4
20260509161508 22 355 0.0 0.0 0.00 0.00 0.00 37 1014.4
20260509160008 22 325 0.0 0.0 0.00 0.00 0.00 37 1014.3
20260509154506 21 325 0.0 0.0 0.00 0.00 0.00 38 1014.6
20260509153006 21 314 0.0 0.0 0.00 0.00 0.00 38 1014.6
20260509151558 21 31 0.0 8.0 0.00 0.00 0.00 40 1014.8
20260509150057 20 17 0.0 0.0 0.00 0.00 0.00 42 1014.9
20260509144600 20 49 0.0 6.4 0.00 0.00 0.00 41 1015.0
20260509143056 20 198 0.0 0.0 0.00 0.00 0.00 41 1015.2
20260509141553 21 313 0.0 0.0 0.00 0.00 0.00 41 1015.3
20260509134544 20 53 0.0 0.0 0.00 0.00 0.00 44 1015.5
20260509133041 19 53 0.0 3.2 0.00 0.00 0.00 44 1015.8
20260509131543 19 221 0.0 0.0 0.00 0.00 0.00 45 1016.0
20260509130038 20 220 0.0 0.0 0.00 0.00 0.00 44 1016.2
20260509124536 20 360 0.0 0.0 0.00 0.00 0.00 43 1016.3
20260509123035 20 44 0.0 9.7 0.00 0.00 0.00 44 1016.4
20260509121534 20 36 0.0 4.8 0.00 0.00 0.00 44 1016.7
20260509120036 20 18 0.0 6.4 0.00 0.00 0.00 45 1016.8
20260509114527 19 338 0.0 0.0 0.00 0.00 0.00 45 1017.0
20260509113024 19 58 0.0 4.8 0.00 0.00 0.00 45 1017.1
20260509111523 20 171 0.0 0.0 0.00 0.00 0.00 43 1017.3
20260509110021 20 173 0.0 0.0 0.00 0.00 0.00 45 1017.5
20260509104519 20 184 0.0 0.0 0.00 0.00 0.00 47 1017.6
20260509103015 20 55 0.0 1.6 0.00 0.00 0.00 45 1017.8
20260509101514 19 54 0.0 0.0 0.00 0.00 0.00 50 1017.9
20260509100011 18 34 0.0 11.3 0.00 0.00 0.00 49 1018.0
20260509094510 19 86 0.0 0.0 0.00 0.00 0.00 52 1018.0
20260509093005 19 98 0.0 0.0 0.00 0.00 0.00 54 1018.1
20260509091501 18 74 0.0 0.0 0.00 0.00 0.00 55 1018.1
20260509090057 18 174 0.0 0.0 0.00 0.00 0.00 58 1018.2
20260509084552 18 71 0.0 0.0 0.00 0.00 0.00 60 1018.2
20260509083051 17 71 0.0 0.0 0.00 0.00 0.00 62 1018.3
20260509081543 16 49 0.0 0.0 0.00 0.00 0.00 66 1018.3
20260509080043 16 49 0.0 0.0 0.00 0.00 0.00 66 1018.4
20260509074534 16 48 0.0 6.4 0.00 0.00 0.00 66 1018.4
20260509073052 15 47 0.0 0.0 0.00 0.00 0.00 70 1018.5
20260509071525 14 63 0.0 0.0 0.00 0.00 0.00 70 1018.5
20260509070022 13 65 0.0 3.2 0.00 0.00 0.00 72 1018.5
20260509064516 13 54 0.0 4.8 0.00 0.00 0.00 76 1018.4
20260509063014 12 69 0.0 0.0 0.00 0.00 0.00 78 1018.4
20260509061506 11 51 0.0 4.8 0.00 0.00 0.00 78 1018.5
20260509060003 11 57 0.0 0.0 0.00 0.00 0.00 78 1018.5
20260509054612 10 53 0.0 0.0 0.00 0.00 0.00 76 1018.5
20260509053057 9 53 0.0 0.0 0.00 0.00 0.00 74 1018.4
20260509051549 8 53 0.0 0.0 0.00 0.00 0.00 74 1018.3
20260509050045 7 53 0.0 0.0 0.00 0.00 0.00 74 1018.2
20260509044541 6 53 0.0 0.0 0.00 0.00 0.00 75 1018.0
20260509043043 6 53 0.0 0.0 0.00 0.00 0.00 75 1017.9
20260509041534 6 53 0.0 0.0 0.00 0.00 0.00 75 1017.8
20260509040043 7 53 0.0 0.0 0.00 0.00 0.00 75 1017.9
20260509034543 7 53 0.0 0.0 0.00 0.00 0.00 75 1017.9
20260509033029 7 53 0.0 0.0 0.00 0.00 0.00 75 1018.0
20260509031534 7 53 0.0 0.0 0.00 0.00 0.00 76 1018.2
20260509030025 7 53 0.0 0.0 0.00 0.00 0.00 75 1018.2
20260509024525 7 53 0.0 0.0 0.00 0.00 0.00 75 1018.2
20260509023024 7 53 0.0 0.0 0.00 0.00 0.00 75 1018.3
20260509021532 7 53 0.0 0.0 0.00 0.00 0.00 75 1018.3
20260509020022 7 53 0.0 0.0 0.00 0.00 0.00 76 1018.3
20260509014520 7 53 0.0 0.0 0.00 0.00 0.00 77 1018.2
20260509013020 7 53 0.0 0.0 0.00 0.00 0.00 78 1018.4
20260509011524 8 53 0.0 0.0 0.00 0.00 0.00 79 1018.4
20260509010019 8 53 0.0 0.0 0.00 0.00 0.00 79 1018.3
20260509004510 9 53 0.0 0.0 0.00 0.00 0.00 80 1018.3
20260509003017 9 53 0.0 0.0 0.00 0.00 0.00 79 1018.4
20260509001505 10 53 0.0 0.0 0.00 0.00 0.00 79 1018.3
20260509000003 10 53 0.0 0.0 0.00 0.00 0.00 79 1018.4
20260508234556 10 57 0.0 0.0 0.00 0.00 0.00 79 1018.3
20260508233055 10 60 0.0 3.2 0.00 0.00 0.00 79 1018.3
20260508231555 10 53 0.0 8.0 0.00 0.00 0.00 79 1018.2
20260508230058 10 76 0.0 1.6 0.00 0.00 0.00 79 1018.1
20260508224547 10 104 0.0 0.0 0.00 0.00 0.00 79 1018.1
20260508223051 10 121 0.0 0.0 0.00 0.00 0.00 79 1018.2
20260508221526 10 121 0.0 0.0 0.00 0.00 0.00 79 1018.2
20260508220025 10 121 0.0 0.0 0.00 0.00 0.00 79 1018.1
20260508214526 10 121 0.0 0.0 0.00 0.00 0.00 79 1018.0
20260508213031 11 121 0.0 0.0 0.00 0.00 0.00 78 1018.0
20260508211538 11 121 0.0 0.0 0.00 0.00 0.00 78 1018.0
20260508210021 11 121 0.0 0.0 0.00 0.00 0.00 77 1017.9